ATLAS 5 CENTAUR DEB, 44691

Orbit data source: Space-Track

ATLAS 5 CENTAUR DEB, 44691 is space debris in HEO originally from a launch on Wed, 17 Oct 2018 UTC launched from the Air Force Eastern Test Range (AFETR). Debris objects in space refer to the collection of defunct objects orbiting the Earth. Examples of debris include non-operational satellites, rocket bodies, and fragments generated from explosions, collisions, or faulty payload assembly.

Loading next visibility...
Identifier
44691, 2018-079BD
Orbit
HEO
Country
Flag of USUS
Related business
Flag of USUnited Launch Alliance/Lockheed Martin (US)
Manufacturer
ULA Decatur
Mission
Spacecraft
Bus & Motor
Unknown
Mass
Unknown
Launch date (UTC)
2018-10-17 (8 years ago)
Launch vehicle
Unknown
Launch site
Air Force Eastern Test Range (AFETR)
Object type
Payload
Rocket body
Debris
Shape & HBR
Unknown shape, 1.1 m
Radar Cross Section
Medium (>0.1 m² and <1 m²)

Expand to show TLE details & history
Last TLE update: 4 days ago

TLE from 4 days ago
0 ATLAS 5 CENTAUR DEB
1 44691U 18079BD  26169.82876013 -.00000111  00000-0  00000-0 0  9992
2 44691  13.2018  55.7805 4449549 268.6399  41.6550  1.76818274 44219
Epoch: 2026-06-18T19:53Z
TLE epoch observation values (Epoch: 2026-06-18T19:53:24.875Z)
Latitude
0.00008°
Longitude
-149.66415°
Altitude
17,067.363 km
Speed
4.495 km/s
True Right ascension
03h 43m 01s
True Declination
0° 00' 00"
Sunlit
Object was in daylight at epoch
Visualization orbit readout
Latitude
Unknown
Longitude
Unknown
Altitude
Unknown
Speed
Unknown
Apparent Right ascension
Unknown
Apparent Declination
Unknown
Sunlit
N/A
Visualization observer readout
Local Sidereal Time
21:41:22
Azimuth
Unknown
Elevation
Unknown
Doppler factor
Unknown
Orbital elements
Apogee altitude
35,366.535 km
Perigee altitude
9,657.087 km
Semi-major axis
28,889.948 km
Eccentricity
0.44495
Inclination
13.2018°
RAAN
55.7805°
Arg. of periapsis
268.6399°
True anomaly
91.25014°
Mean anomaly
41.655°
Eccentric anomaly
64.70459°
Mean motion
0.442 °/min
Orbital period
814.48 mins
BSTAR
0
Loading maneuver chart data...
Computing Atmospheric mass density...

Documentation

Showing up to 5 results
|